Regional Weather Roundup
Issued by NWS Sioux Falls, SD

Home | Current Version | Previous Version | Text Only | Print | Product List | Glossary Off
Versions: 1 2 3 4 5 6 7 8 9 10 11 12 13 14 15 16 17 18 19 20 21 22 23 24 25 26 27 28 29 30 31 32 33 34 35 36 37 38 39 40 41 42 43 44 45 46 47 48 49 50

000
ASUS43 KFSD 240602
RWRFSD

WEATHER ROUNDUP FOR SE SOUTH DAKOTA/SW MINNESOTA/NW IOWA
NATIONAL WEATHER SERVICE SIOUX FALLS SD
1200 AM CST MON NOV 24 2014

NOTE: "FAIR" INDICATES FEW OR NO CLOUDS BELOW 12,000 FEET WITH NO
SIGNIFICANT WEATHER AND OR OBSTRUCTIONS TO VISIBILITY.


SDZ038>040-050-052>070-240700-
SOUTHEAST SOUTH DAKOTA

CITY           SKY/WX    TMP DP  RH WIND       PRES   REMARKS
CHAMBERLAIN    CLOUDY    28  19  69 NW23G31   29.64S WCI  13
6HR MIN TEMP:  28; 6HR MAX TEMP:  31;

HURON          CLOUDY    22  14  71 N23G29    29.61F WCI   6
6HR MIN TEMP:  22; 6HR MAX TEMP:  30;

MADISON        CLOUDY    21  16  79 NW23G32   29.53S WCI   5
MITCHELL       CLOUDY    25  16  68 NW23      29.63S WCI  10
6HR MIN TEMP:  25; 6HR MAX TEMP:  34;

SIOUX FALLS    CLOUDY    24  16  71 NW29G36   29.53S WCI   7
6HR MIN TEMP:  24; 6HR MAX TEMP:  34;

WINNER         CLOUDY    29  19  66 NW21G31   29.66F WCI  16
YANKTON        CLOUDY    28  18  64 NW18G25   29.58F WCI  16
$$

MNZ071-072-080-081-089-090-097-098-240700-
SOUTHWEST MINNESOTA

CITY           SKY/WX    TMP DP  RH WIND       PRES   REMARKS
FAIRMONT       CLOUDY    28  19  69 NW29G36   29.40F WCI  13
JACKSON        CLOUDY    28  23  80 NW23G35   29.43S WCI  14
LUVERNE        CLOUDY    27  19  74 NW17G31   29.51S WCI  14
MARSHALL       CLOUDY    23  18  80 NW28      29.49F WCI   6
6HR MIN TEMP:  23; 6HR MAX TEMP:  36;

MONTEVIDEO     CLOUDY    23  21  93 N24G30    29.49F WCI   7
PIPESTONE      CLOUDY    23  18  80 NW20G28   29.49S WCI   8
REDWOOD FALLS  CLOUDY    26  23  88 NW22G32   29.45S WCI  12
TRACY          CLOUDY    25  22  91 NW28G35   29.48S WCI   8
WINDOM         CLOUDY    25  21  86 NW21G33   29.43F WCI  10
WORTHINGTON    CLOUDY    27  19  74 NW28      29.46S WCI  11
$$

IAZ001>003-012>014-020>022-031-032-NEZ013-014-SDZ071-240700-
NORTHWEST IOWA

CITY           SKY/WX    TMP DP  RH WIND       PRES   REMARKS
DENISON        CLOUDY    30  23  74 NW26      29.48S WCI  16
ESTHERVILLE    CLOUDY    28  22  78 NW25G35   29.42F WCI  13
SIOUX CITY     CLOUDY    30  20  66 NW30G37   29.53S WCI  15
6HR MIN TEMP:  30; 6HR MAX TEMP:  42; 6HR PCP: TRACE;

SPENCER        CLOUDY    29  22  75 NW22G31   29.45S WCI  15
6HR MIN TEMP:  29; 6HR MAX TEMP:  39;

$$

ABBREVIATIONS USED IN REMARKS
   TC - TEMPERATURE IN CELSIUS
  WCI - WIND CHILL INDEX
   HX - HEAT INDEX
  VSB - VISIBILITY



USA.gov is the U.S. government's official web portal to all federal, state and local government web resources and services.